Location: *
(51.8167°N, 12.5000°E)
Time: 21:52:49
(UTC+00:00)

Cosmos 2237 Rocket - Pass Details

Date: 16 September 2019
Orbit: 833 x 852 km, 71.0° (Epoch: 19 October)

Event Time Altitude Azimuth Distance (km) Brightness Sun altitude
Rises 20:10:53 0° 324° (NW) 3,425 6.7 -24.4°
Reaches altitude 10° 20:13:32 10° 316° (NW) 2,487 5.7 -24.7°
Maximum altitude 20:18:36 34° 253° (WSW) 1,379 3.5 -25.3°
Enters shadow 20:21:06 23° 210° (SSW) 1,717 3.6 -25.6°
